TimeEST,TemperatureF,Dew PointF,Humidity,Sea Level PressureIn,VisibilityMPH,Wind Direction,Wind SpeedMPH,Gust SpeedMPH,PrecipitationIn,Events,Conditions,WindDirDegrees,DateUTC
12:53 AM,39.0,34.0,82,29.98,9.0,Calm,Calm,-,N/A,,Mostly Cloudy,0,2013-02-06 05:53:00
1:53 AM,37.0,33.1,86,29.99,10.0,Calm,Calm,-,N/A,,Clear,0,2013-02-06 06:53:00
2:53 AM,34.0,32.0,92,29.99,10.0,Calm,Calm,-,N/A,,Clear,0,2013-02-06 07:53:00
3:53 AM,34.0,30.9,89,29.99,6.0,Calm,Calm,-,N/A,,Clear,0,2013-02-06 08:53:00
4:53 AM,33.1,30.9,92,30.02,10.0,Calm,Calm,-,N/A,,Clear,0,2013-02-06 09:53:00
5:53 AM,32.0,30.0,92,30.05,8.0,Calm,Calm,-,N/A,,Clear,0,2013-02-06 10:53:00
7:53 AM,32.0,28.9,88,30.12,8.0,Calm,Calm,-,N/A,,Clear,0,2013-02-06 12:53:00
8:53 AM,44.1,35.1,71,30.14,10.0,Calm,Calm,-,N/A,,Clear,0,2013-02-06 13:53:00
9:53 AM,53.1,33.1,47,30.16,10.0,NNW,5.8,-,N/A,,Clear,330,2013-02-06 14:53:00
10:53 AM,57.9,30.9,36,30.16,10.0,NW,9.2,-,N/A,,Clear,310,2013-02-06 15:53:00
11:53 AM,59.0,30.0,33,30.15,10.0,Variable,4.6,-,N/A,,Clear,0,2013-02-06 16:53:00
12:53 PM,61.0,28.0,29,30.14,10.0,NW,8.1,-,N/A,,Clear,320,2013-02-06 17:53:00
1:53 PM,61.0,28.0,29,30.14,10.0,Calm,Calm,-,N/A,,Clear,0,2013-02-06 18:53:00
2:53 PM,63.0,24.1,23,30.13,10.0,Variable,3.5,-,N/A,,Clear,0,2013-02-06 19:53:00
3:53 PM,62.1,23.0,22,30.14,10.0,NNW,5.8,-,N/A,,Clear,330,2013-02-06 20:53:00
4:53 PM,60.1,25.0,26,30.15,10.0,North,6.9,-,N/A,,Clear,10,2013-02-06 21:53:00
5:53 PM,48.0,26.1,42,30.18,10.0,North,5.8,-,N/A,,Clear,10,2013-02-06 22:53:00
6:53 PM,45.0,28.0,52,30.22,10.0,North,3.5,-,N/A,,Clear,350,2013-02-06 23:53:00
7:53 PM,42.1,28.0,58,30.24,10.0,Calm,Calm,-,N/A,,Clear,0,2013-02-07 00:53:00
8:53 PM,46.0,34.0,63,30.27,10.0,East,4.6,-,N/A,,Clear,80,2013-02-07 01:53:00
9:53 PM,43.0,35.1,74,30.28,10.0,Calm,Calm,-,N/A,,Clear,0,2013-02-07 02:53:00
10:53 PM,41.0,34.0,76,30.27,10.0,NE,3.5,-,N/A,,Clear,50,2013-02-07 03:53:00
11:53 PM,37.9,33.1,83,30.30,10.0,Calm,Calm,-,N/A,,Clear,0,2013-02-07 04:53:00